sat.trackr.live / text

‹ back to catalog

UNKNOWN

NORAD 87159

UNKNOWN UNKNOWN UNKNOWN

§ Identity

Operator
Country
Launch date
Launch site
Launch vehicle
Mass (kg)
RCS (m²)

External: N2YO · Heavens-Above

§ Orbital elements

Epoch: 2026-05-24T01:27:48.285792Z

Period
105.38 min
Inclination
90.3511°
Eccentricity
0.0103972
Mean motion
13.66478482 rev/d
Perigee alt
935.4 km
Apogee alt
1,089.1 km
Semi-major
7,390.4 km
B*
1.1589e-3
RAAN
75.2586°
Arg perigee
133.3162°
Mean anomaly
227.6725°
Rev number
57,885

§ Raw data

UNKNOWN1 87159U          26144.06097553  .00001006  00000+0  11589-2 0  99942 87159  90.3511  75.2586 0103972 133.3162 227.6725 13.66478482578858

JSON: /api/v1/satellites/87159 · /tle

For live sub-satellite position, see the globe view (requires WebGL).

§ Visibility from observer

Set your observer location to see the next 7 days of passes ≥ 10°. The values pass through the URL so the page stays shareable.

No JS? Fill the form by hand. The geolocation button needs JavaScript.